Retour au catalogue

BRAZILSAT B2

ActifCommunicationsGEO
NORAD 23536·PAYLOAD·🇧🇷 Brazil

Lancé Mar 28, 1995 depuis Guiana Space Centre

Loading…

TLE

FraisSource: Space-Track

Époque: Sep 14, 2026, 18:34 UTC

1 23536U 95016A   26257.77388760 -.00000137  00000-0  00000-0 0  9990
2 23536  12.2592  30.8949 0004205 198.8866 326.2258  0.99237188114980

Suivez BRAZILSAT B2 en temps réel avec AllMySat

Download on the App Store